Powrót do katalogu

THOR DELTA 1 DEB

LostPO
NORAD 33516·DEBRIS·🇺🇸 United States

Wystrzelony Apr 1, 1971 z Vandenberg Space Force Base

Loading…

Następne Przeloty (najbliższe 24 godziny)

TLE

NieaktualneSource: Space-Track

Epoka: Feb 3, 2017, 02:44 UTC

1 33516U 71024G   17034.11420193  .00000377  00000-0  14395-2 0  9999
2 33516  88.1512  82.6495 0044665 255.6651 135.8716 12.87824406569760

Śledź THOR DELTA 1 DEB w czasie rzeczywistym z AllMySat

Download on the App Store